Location: Plymouth
(43.7490°N, 87.9770°W)
Time: 16:34:32
(UTC-05:00)

Daily predictions for brighter satellites

Satellite Brightness Start Highest point End
(mag) Time Altitude Azimuth Time Altitude Azimuth Time Altitude Azimuth
Cosmos 1633 2.7 20:10:59 10° S 20:14:36 83° W 20:18:15 10° N
GENESIS II 4.2 20:10:40 10° NW 20:14:37 87° NE 20:18:30 10° SE
Cosmos 2263 Rocket 2.6 20:12:11 10° NNW 20:17:42 47° ENE 20:23:10 10° SE
Okean 1 Rocket 4.3 20:14:42 10° SE 20:17:58 21° E 20:21:16 10° NE
Cosmos 1300 Rocket 4.3 20:15:00 10° SSE 20:18:46 31° E 20:22:35 10° NNE
NOSS 2-3 (C) 4.2 20:18:02 10° S 20:22:27 44° ESE 20:27:33 10° NE
Cosmos 2322 Rocket 2.3 20:17:20 10° S 20:22:54 56° ESE 20:28:28 10° NNE
Cosmos 1140 Rocket 3.7 20:18:55 10° NNW 20:24:10 78° WSW 20:29:24 10° SSE
Tiangong 1 1.1 20:21:31 10° W 20:24:15 51° SSW 20:26:47 11° ESE
Meteor 1-11 Rocket 3.9 20:19:13 10° S 20:24:52 54° E 20:30:26 10° NNE
Cosmos 614 Rocket 4.0 20:20:07 10° NNW 20:25:16 88° WSW 20:30:25 10° SSE
S3M 4.0 20:19:02 10° N 20:25:18 71° E 20:31:38 10° SSE
YAOGAN 6 3.8 20:22:36 10° SE 20:25:31 25° ENE 20:28:27 10° NNE
Cosmos 1553 Rocket 3.9 20:20:19 10° N 20:26:30 78° E 20:32:34 10° SSE
ERBS 4.2 20:26:22 10° W 20:29:34 34° NW 20:32:46 10° NNE
Spot 2 Rocket 3.5 20:26:48 10° SSE 20:31:55 89° ENE 20:37:02 10° NNW
Cosmos 2266 Rocket 4.3 20:26:18 10° SSE 20:31:57 43° E 20:37:37 10° NNE
Resurs 01 Rocket 1.9 20:28:45 10° S 20:33:12 75° WSW 20:37:40 10° NNW
Abrixas rocket 3.6 20:30:32 10° WNW 20:33:34 34° N 20:36:37 10° ENE
SL-16 R/B 2.2 20:29:25 10° SSW 20:35:02 71° ESE 20:40:42 10° NNE
Cosmos 2151 Rocket 3.6 20:35:46 10° S 20:40:09 85° W 20:44:35 10° N
EXPRESS MD2 2.9 20:38:30 10° WSW 20:41:03 75° NNW 20:45:26 10° ENE
Meteor 1-23 Rocket 4.5 20:35:57 10° N 20:41:22 50° ENE 20:46:46 10° SSE
Helios 1A 3.5 20:41:23 12° SE 20:45:07 42° ENE 20:49:08 10° N
Cosmos 2322 4.5 20:41:50 10° SSE 20:46:36 29° ESE 20:51:24 10° NE
ATLAS 3B R/B 3.1 20:42:15 10° NNW 20:48:49 48° NE 20:53:56 16° ESE
ERS-1 Rocket 3.9 20:46:41 15° ESE 20:50:11 32° ENE 20:54:37 10° N
Meteor 1-29 4.1 20:50:11 10° NE 20:52:59 23° E 20:54:00 20° ESE
Cosmos 1536 Rocket 3.9 20:49:10 10° NNW 20:53:29 68° W 20:57:47 10° S
Cosmos 2360 Rocket 2.5 20:50:21 10° S 20:55:35 42° ESE 21:00:51 10° NE
Cosmos 1980 Rocket 4.3 20:52:03 10° WSW 20:56:59 31° NW 21:01:55 10° N
COSMOS 2428 4.0 20:55:48 17° SE 20:57:41 20° E 21:01:41 10° NE
Cosmos 1939 Rocket 2.8 20:54:18 10° SSE 20:58:16 87° WSW 21:02:13 10° NNW
Lacrosse 5 rocket 3.8 20:56:59 10° W 20:58:47 13° WSW 21:00:37 10° SSW
Cosmos 1741 Rocket 4.2 20:53:39 10° NNW 20:58:53 72° WSW 21:04:08 10° S
Cosmos 1536 2.8 20:55:12 10° S 20:59:16 86° E 21:03:22 10° N
Envisat 3.4 20:56:12 10° S 21:01:13 64° W 21:06:17 10° NNW
NOSS 2-3 (D) 3.9 20:57:31 10° SW 21:02:13 89° SE 21:07:44 10° NE
Meteor 1-5 Rocket 4.0 21:03:55 10° S 21:09:13 75° E 21:14:31 10° NNE
H-2A R/B 3.3 21:08:23 19° E 21:10:23 24° ENE 21:14:20 10° NNE
SAR-Lupe-4 4.0 21:12:33 30° ESE 21:13:51 44° ENE 21:17:17 10° N
NOAA 11 4.3 21:12:04 19° SSE 21:15:57 62° ENE 21:21:23 10° N
CZ-4B DEB 2.5 21:15:44 44° SE 21:16:24 60° ENE 21:19:15 10° N
Meteor 2-4 Rocket 4.3 21:12:44 10° NNW 21:18:11 58° W 21:23:47 10° S
MetOp-A 4.2 21:24:43 26° SE 21:27:43 63° ENE 21:33:01 10° N
Cosmos 405 3.8 21:28:31 33° ENE 21:28:31 33° ENE 21:31:23 10° NNE
ATLAS 2AS CENTAUR R/B 3.1 21:20:57 10° SW 21:28:42 88° NW 21:36:55 10° NE
Helios 1B rocket 2.4 21:25:41 10° NNE 21:29:48 89° WNW 21:33:55 10° SSW
Cosmos 1110 Rocket 3.9 21:25:28 10° SSW 21:30:38 83° ESE 21:35:51 10° NNE
SAR-Lupe-1 4.1 21:29:54 46° SE 21:30:41 59° ENE 21:34:14 10° N
BREEZE M DEB (TANK) 2.8 21:25:47 10° SW 21:33:05 43° SSE 21:33:38 40° SE
SPOT 5 3.3 21:33:37 34° ESE 21:35:05 44° ENE 21:39:29 10° N
Cosmos 1455 Rocket 3.9 21:37:04 32° E 21:37:04 32° E 21:40:59 10° NNE
CENTAUR R/B 4.5 21:31:04 10° NNW 21:37:14 26° NNE 21:43:21 12° E
Cosmos 1066 Rocket 4.3 21:34:00 10° N 21:39:19 53° ENE 21:41:16 36° SE
Lacrosse 5 2.1 21:34:25 10° SW 21:39:29 73° NW 21:44:34 10° NE
Cosmos 1331 Rocket 4.0 21:38:29 10° SSW 21:43:40 86° WNW 21:48:57 10° NNE
SeaSat 1 3.5 21:41:17 10° NNE 21:46:00 46° NW 21:50:41 10° SW
SL-8 R/B 3.6 21:42:01 10° WNW 21:46:51 90° NNE 21:48:14 47° ESE
Atlas Centaur 2 4.1 21:43:50 10° WSW 21:49:27 21° SSW 21:51:30 19° S
SL-08 RB Rocket 3.7 21:49:38 49° SE 21:50:38 64° ENE 21:55:08 10° N
Nadezhda 1 Rocket 4.5 21:45:22 10° N 21:51:23 44° ENE 21:53:09 36° ESE
ARGOS 3.0 21:49:55 37° SSE 21:52:06 83° ENE 21:57:31 10° NNW
Cosmos 1244 Rocket 4.4 21:49:27 17° S 21:54:22 88° E 22:00:32 10° N
Cosmos 1743 4.1 21:56:16 26° NE 21:56:16 26° NE 21:58:21 10° NNE
Cosmos 1025 Rocket 4.1 21:53:50 10° NNW 21:57:52 41° W 22:00:09 22° SSW
Okean 2 4.3 21:55:18 10° NNW 21:59:12 44° W 22:00:55 28° SSW
Tiangong 1 3.8 21:57:33 10° WSW 21:57:45 11° WSW 21:57:45 11° WSW
Cosmos 2263 Rocket 3.9 21:56:38 10° NW 22:01:20 27° WSW 22:05:42 11° SSW
Landsat 7 4.3 22:01:05 42° E 22:01:25 42° ENE 22:05:55 10° N
Cosmos 1354 Rocket 4.4 21:56:41 10° N 22:01:51 47° ENE 22:02:44 43° E
Cosmos 2278 Rocket 3.2 22:00:25 10° N 22:05:30 32° NE 22:06:39 30° ENE
Cosmos 2322 Rocket 4.4 22:02:38 10° WSW 22:07:18 25° NW 22:12:00 10° N
Cosmos 1844 Rocket 2.6 22:03:06 10° NNW 22:08:49 80° ENE 22:10:10 54° SE
Abrixas rocket 3.3 22:07:22 10° WNW 22:09:53 44° NW 22:09:53 44° NW
SPOT 1/Viking Rocket 3.5 22:10:41 58° SE 22:11:43 78° ENE 22:16:57 10° N
SL-08 R/B 4.4 22:09:02 36° S 22:11:47 79° E 22:18:08 10° N
Cosmos 1818 3.4 22:10:06 43° S 22:11:50 68° ESE 22:17:16 10° NE
Cosmos 2237 4.3 22:07:35 10° SSW 22:13:15 76° WNW 22:18:59 10° NNE
Cosmos 1975 3.0 22:16:24 63° WSW 22:16:39 65° W 22:20:37 10° N
Terra 2.4 22:16:55 42° ENE 22:16:55 42° ENE 22:21:15 10° N
YAOGAN 11 4.0 22:16:51 77° SW 22:17:05 80° WSW 22:21:25 10° NNW
Nimbus 7 Rocket 4.3 22:12:51 10° NNE 22:18:42 65° ESE 22:19:44 55° SSE
Cosmos 1602 Rocket 4.3 22:16:27 10° N 22:19:50 41° NE 22:19:50 41° NE
BREEZE-M DEB 3.0 22:15:45 10° WNW 22:22:33 71° N 22:22:33 71° N
NOSS 3-2 (A) 3.9 22:15:25 10° NW 22:22:56 83° NE 22:25:38 47° SE
H-2A R/B 3.7 22:23:50 24° NE 22:23:50 24° NE 22:26:40 10° N
Cosmos 1503 Rocket 3.9 22:17:40 10° NNW 22:23:04 72° ENE 22:23:33 67° ESE
Cosmos 2219 Rocket 2.2 22:24:25 59° E 22:24:25 59° E 22:29:47 10° NNE
USA 238 DEB 4.1 22:18:04 10° NW 22:24:59 57° WSW 22:27:24 40° S
USA 238 4.1 22:18:10 10° NW 22:25:06 58° WSW 22:27:30 40° S
Cosmos 724 4.1 22:20:03 10° NNW 22:25:58 78° NE 22:26:49 64° ESE
Meteor 1-12 Rocket 4.4 22:26:33 37° SSW 22:28:50 71° WNW 22:34:30 10° N
ERS-1 Rocket 4.4 22:26:41 23° SW 22:28:54 32° W 22:33:25 10° NNW
USA 245 4.5 22:28:30 42° SW 22:29:26 47° W 22:33:33 10° NNW
SL-16 R/B 4.5 22:39:45 11° ENE 22:39:45 11° ENE 22:39:55 10° ENE
ATLAS 3B R/B 3.5 22:33:17 10° NW 22:39:21 38° WSW 22:41:11 32° SSW
Cosmos 2360 Rocket 3.9 22:34:42 10° WSW 22:39:41 32° NW 22:44:43 10° N
COSMOS 2428 3.0 22:37:40 22° SW 22:41:23 64° WNW 22:47:07 10° NNE
Cosmos 1626 Rocket 4.1 22:40:05 10° N 22:43:28 54° N 22:43:28 54° N
Cosmos 1844 3.7 22:41:45 10° NNW 22:47:24 68° WSW 22:47:46 66° SW
Cosmos 1745 Rocket 4.1 22:45:49 46° SW 22:47:39 68° W 22:53:48 10° N
H-2A R/B 2.7 22:49:01 42° WSW 22:49:34 44° W 22:54:20 10° NNW
NOSS 0 Rocket 4.0 22:51:55 62° E 22:51:55 62° E 22:57:29 10° NNE
Cosmos 1437 Rocket 4.2 22:54:37 38° NW 22:54:37 38° NW 22:57:27 10° N
ATLAS CENTAUR R/B 3.7 22:51:54 10° N 22:53:18 14° NNE 22:53:18 14° NNE
Cosmos 2333 Rocket 2.2 22:55:01 74° NE 22:55:01 74° NE 23:00:11 10° NNE
NOSS 3-2 (C) 3.9 22:54:31 10° NW 23:02:04 78° WSW 23:03:28 63° S
Cosmos 1992 Rocket 4.4 23:06:33 57° NNE 23:06:33 57° NNE 23:10:44 10° NNE
COSMOS 2455 3.7 23:04:10 10° NNW 23:09:46 38° NE 23:10:05 38° ENE
Cosmos 2237 Rocket 2.7 23:12:24 51° NE 23:12:24 51° NE 23:16:35 10° NNE
GP-B 4.2 23:06:43 10° N 23:10:00 43° NW 23:10:00 43° NW
Cosmos 968 Rocket 4.0 23:08:32 10° NNW 23:12:34 53° N 23:12:34 53° N
Cosmos 1980 4.0 23:18:31 62° NNE 23:18:31 62° NNE 23:23:13 10° NNE
Lacrosse 5 4.1 23:19:05 10° WNW 23:23:12 24° NNW 23:27:19 10° NE
CENTAUR R/B 3.1 23:21:28 10° NW 23:29:19 72° NE 23:30:30 64° E
NOSS 3-4 (A) 3.8 23:28:46 51° W 23:30:09 64° NW 23:36:39 10° NNE
NOSS 3-4 (C) 3.8 23:28:58 53° W 23:30:15 65° NW 23:36:45 10° NNE
ATLAS CENTAUR R/B 3.9 23:18:45 10° NW 23:31:26 45° NNE 23:33:12 36° ENE
Cosmos 2297 4.2 23:31:22 10° NNW 23:35:58 56° N 23:35:58 56° N
Cosmos 2278 Rocket 3.3 23:44:22 10° NW 23:48:29 37° WNW 23:48:29 37° WNW
USA 215 4.4 23:46:20 21° ENE 23:49:54 37° NNE 23:55:48 10° NW
Terra 3.9 23:55:49 20° WNW 23:55:49 20° WNW 23:58:22 10° NW
